• In Uzbekistan
  • List of Countries
  • For 7 days
  • Water Temperature
  • Satellite Maps
  • Weather Map
  • Weather Widgets
  • user-avatar
    Login

    Hourly Weather Buri

    Today, 19 February, Monday

    Time Temperature Precipitation Wind Pressure Humidity
    00:00 +21°C° 0.2 mm 1 mps 707 mmHg 96%
    01:00 +21°C° 0.3 mm 1 mps 707 mmHg 96%
    02:00 +21°C° 0.3 mm 1 mps 706 mmHg 96%
    03:00 +21°C° 0.3 mm 1 mps 706 mmHg 96%
    04:00 +21°C° 0.5 mm 1 mps 706 mmHg 97%
    05:00 +21°C° 0.5 mm 1 mps 706 mmHg 97%
    06:00 +21°C° 0.5 mm 1 mps 706 mmHg 97%
    07:00 +22°C° 0.1 mm 1 mps 706 mmHg 94%
    08:00 +23°C° 0.1 mm 2 mps 707 mmHg 90%
    09:00 +24°C° 0.1 mm 2 mps 707 mmHg 87%
    10:00 +25°C° 0.7 mm 2 mps 707 mmHg 85%
    11:00 +26°C° 0.7 mm 2 mps 707 mmHg 82%
    12:00 +26°C° 0.7 mm 3 mps 707 mmHg 80%
    13:00 +26°C° 0.9 mm 3 mps 706 mmHg 81%
    14:00 +26°C° 0.9 mm 3 mps 706 mmHg 83%
    15:00 +26°C° 0.9 mm 2 mps 705 mmHg 84%
    16:00 +26°C° 0.9 mm 2 mps 705 mmHg 87%
    17:00 +25°C° 0.9 mm 1 mps 705 mmHg 89%
    18:00 +25°C° 0.9 mm 1 mps 705 mmHg 91%
    19:00 +24°C° 0.5 mm 1 mps 705 mmHg 92%
    20:00 +23°C° 0.5 mm 1 mps 705 mmHg 93%
    21:00 +22°C° 0.5 mm 1 mps 706 mmHg 94%
    22:00 +22°C° 0 mm 1 mps 706 mmHg 94%
    23:00 +22°C° 0 mm 1 mps 706 mmHg 95%

    Tomorrow, 20 February, Tuesday

    Time Temperature Precipitation Wind Pressure Humidity
    00:00 +22°C° 0 mm 1 mps 706 mmHg 95%
    01:00 +22°C° 0 mm 1 mps 706 mmHg 95%
    02:00 +21°C° 0 mm 1 mps 705 mmHg 95%
    03:00 +21°C° 0 mm 1 mps 705 mmHg 95%
    04:00 +21°C° 0 mm 1 mps 705 mmHg 96%
    05:00 +21°C° 0 mm 1 mps 705 mmHg 96%
    06:00 +21°C° 0 mm 1 mps 705 mmHg 96%
    07:00 +21°C° 0 mm 2 mps 706 mmHg 92%
    08:00 +24°C° 0 mm 2 mps 706 mmHg 87%
    09:00 +26°C° 0 mm 3 mps 707 mmHg 82%
    10:00 +27°C° 0.3 mm 3 mps 707 mmHg 77%
    11:00 +28°C° 0.3 mm 3 mps 706 mmHg 72%
    12:00 +29°C° 0.3 mm 4 mps 706 mmHg 67%
    13:00 +29°C° 0.7 mm 3 mps 706 mmHg 68%
    14:00 +29°C° 0.7 mm 3 mps 705 mmHg 70%
    15:00 +29°C° 0.7 mm 3 mps 704 mmHg 71%
    16:00 +28°C° 0.7 mm 3 mps 704 mmHg 77%
    17:00 +27°C° 0.7 mm 2 mps 704 mmHg 82%
    18:00 +26°C° 0.7 mm 2 mps 704 mmHg 87%
    19:00 +25°C° 0 mm 2 mps 704 mmHg 90%
    20:00 +24°C° 0 mm 1 mps 705 mmHg 92%
    21:00 +23°C° 0 mm 1 mps 705 mmHg 95%
    22:00 +23°C° 0.4 mm 1 mps 705 mmHg 95%
    23:00 +23°C° 0.4 mm 1 mps 705 mmHg 96%

    Day after tomorrow, 21 February, Wednesday

    Time Temperature Precipitation Wind Pressure Humidity
    00:00 +23°C° 0.4 mm 2 mps 705 mmHg 97%
    01:00 +21°C° 0.2 mm 2 mps 705 mmHg 97%
    02:00 +21°C° 0.2 mm 2 mps 705 mmHg 97%
    03:00 +21°C° 0.2 mm 2 mps 704 mmHg 97%
    04:00 +21°C° 0 mm 2 mps 704 mmHg 97%
    05:00 +21°C° 0 mm 2 mps 705 mmHg 97%
    06:00 +22°C° 0 mm 1 mps 705 mmHg 96%
    07:00 +23°C° 0.1 mm 2 mps 705 mmHg 92%
    08:00 +24°C° 0.1 mm 2 mps 706 mmHg 88%
    09:00 +26°C° 0.1 mm 3 mps 706 mmHg 84%
    10:00 +27°C° 0.5 mm 3 mps 706 mmHg 80%
    11:00 +28°C° 0.5 mm 3 mps 705 mmHg 77%
    12:00 +29°C° 0.5 mm 3 mps 705 mmHg 74%
    13:00 +29°C° 0.6 mm 3 mps 704 mmHg 72%
    14:00 +30°C° 0.6 mm 3 mps 704 mmHg 70%
    15:00 +30°C° 0.6 mm 3 mps 703 mmHg 69%
    16:00 +29°C° 0.2 mm 3 mps 703 mmHg 73%
    17:00 +29°C° 0.2 mm 2 mps 703 mmHg 77%
    18:00 +28°C° 0.2 mm 2 mps 703 mmHg 81%
    19:00 +27°C° 0.2 mm 2 mps 703 mmHg 86%
    20:00 +25°C° 0.2 mm 2 mps 703 mmHg 90%
    21:00 +24°C° 0.2 mm 1 mps 704 mmHg 94%
    22:00 +23°C° 0.3 mm 1 mps 704 mmHg 95%
    23:00 +23°C° 0.3 mm 1 mps 704 mmHg 95%

    22 February, Thursday

    Time Temperature Precipitation Wind Pressure Humidity
    00:00 +23°C° 0.3 mm 1 mps 704 mmHg 96%
    01:00 +22°C° 0 mm 1 mps 704 mmHg 96%
    02:00 +22°C° 0 mm 1 mps 704 mmHg 96%
    03:00 +22°C° 0 mm 1 mps 703 mmHg 96%
    04:00 +22°C° 0 mm 1 mps 704 mmHg 96%
    05:00 +22°C° 0 mm 1 mps 704 mmHg 97%
    06:00 +20°C° 0 mm 2 mps 704 mmHg 97%
    07:00 +23°C° 0 mm 2 mps 705 mmHg 92%
    08:00 +24°C° 0 mm 2 mps 706 mmHg 88%
    09:00 +25°C° 0 mm 3 mps 706 mmHg 83%
    10:00 +26°C° 0.1 mm 3 mps 706 mmHg 79%
    11:00 +27°C° 0.1 mm 2 mps 706 mmHg 74%
    12:00 +28°C° 0.1 mm 2 mps 706 mmHg 70%
    13:00 +29°C° 0.4 mm 2 mps 706 mmHg 69%
    14:00 +29°C° 0.4 mm 2 mps 705 mmHg 69%
    15:00 +29°C° 0.4 mm 2 mps 705 mmHg 68%
    16:00 +28°C° 0.2 mm 3 mps 705 mmHg 73%
    17:00 +27°C° 0.2 mm 3 mps 705 mmHg 78%
    18:00 +25°C° 0.2 mm 4 mps 705 mmHg 83%
    19:00 +23°C° 0 mm 4 mps 705 mmHg 85%
    20:00 +22°C° 0 mm 4 mps 706 mmHg 87%
    21:00 +20°C° 0 mm 4 mps 707 mmHg 89%
    22:00 +20°C° 0 mm 4 mps 707 mmHg 90%
    23:00 +20°C° 0 mm 4 mps 707 mmHg 90%

    23 February, Friday

    Time Temperature Precipitation Wind Pressure Humidity
    00:00 +19°C° 0 mm 3 mps 707 mmHg 91%
    01:00 +19°C° 0 mm 3 mps 707 mmHg 91%
    02:00 +18°C° 0 mm 3 mps 707 mmHg 92%
    03:00 +18°C° 0 mm 3 mps 706 mmHg 92%
    04:00 +18°C° 0 mm 3 mps 707 mmHg 93%
    05:00 +18°C° 0 mm 3 mps 707 mmHg 93%
    06:00 +17°C° 0 mm 3 mps 707 mmHg 93%
    07:00 +19°C° 0 mm 3 mps 708 mmHg 87%
    08:00 +21°C° 0 mm 4 mps 708 mmHg 81%
    09:00 +22°C° 0 mm 4 mps 709 mmHg 75%
    10:00 +25°C° 0 mm 4 mps 709 mmHg 68%
    11:00 +27°C° 0 mm 4 mps 709 mmHg 62%
    12:00 +28°C° 0 mm 4 mps 708 mmHg 56%
    13:00 +29°C° 0 mm 4 mps 708 mmHg 55%
    14:00 +29°C° 0 mm 4 mps 707 mmHg 55%
    15:00 +30°C° 0 mm 3 mps 707 mmHg 55%
    16:00 +28°C° 0 mm 4 mps 707 mmHg 61%
    17:00 +27°C° 0 mm 4 mps 707 mmHg 68%
    18:00 +25°C° 0 mm 4 mps 707 mmHg 74%
    19:00 +23°C° 0 mm 4 mps 707 mmHg 79%
    20:00 +21°C° 0 mm 4 mps 707 mmHg 83%
    21:00 +20°C° 0 mm 4 mps 708 mmHg 88%
    22:00 +19°C° 0 mm 4 mps 708 mmHg 90%
    23:00 +18°C° 0 mm 3 mps 708 mmHg 91%

    24 February, Saturday

    Time Temperature Precipitation Wind Pressure Humidity
    00:00 +18°C° 0 mm 3 mps 708 mmHg 93%
    01:00 +18°C° 0 mm 3 mps 708 mmHg 93%
    02:00 +18°C° 0 mm 3 mps 707 mmHg 93%
    03:00 +17°C° 0 mm 3 mps 707 mmHg 94%
    04:00 +17°C° 0 mm 3 mps 707 mmHg 93%
    05:00 +17°C° 0 mm 3 mps 707 mmHg 93%
    06:00 +17°C° 0 mm 3 mps 708 mmHg 93%
    07:00 +19°C° 0 mm 3 mps 708 mmHg 87%
    08:00 +20°C° 0 mm 3 mps 708 mmHg 82%
    09:00 +22°C° 0 mm 3 mps 709 mmHg 76%
    10:00 +25°C° 0 mm 3 mps 709 mmHg 71%
    11:00 +27°C° 0 mm 3 mps 709 mmHg 65%
    12:00 +28°C° 0 mm 2 mps 709 mmHg 60%
    13:00 +28°C° 0 mm 3 mps 708 mmHg 61%
    14:00 +28°C° 0 mm 3 mps 707 mmHg 62%
    15:00 +29°C° 0 mm 3 mps 707 mmHg 63%
    16:00 +28°C° 0 mm 3 mps 707 mmHg 67%
    17:00 +27°C° 0 mm 3 mps 707 mmHg 70%
    18:00 +26°C° 0 mm 3 mps 706 mmHg 74%
    19:00 +24°C° 0 mm 3 mps 707 mmHg 79%
    20:00 +22°C° 0 mm 3 mps 707 mmHg 85%
    21:00 +20°C° 0 mm 3 mps 707 mmHg 90%
    22:00 +19°C° 0 mm 3 mps 707 mmHg 91%
    23:00 +19°C° 0 mm 2 mps 707 mmHg 93%
    Show more